Regional Weather Roundup
Issued by NWS

Home | Current Version | Previous Version | Text Only | Print | Product List | Glossary On
Versions: 1 2 3 4 5 6 7 8 9 10 11 12 13 14 15 16 17 18 19 20 21 22 23 24 25 26 27 28 29 30 31 32 33 34 35 36 37 38 39 40 41 42 43 44 45 46 47 48 49 50
000
ASUS44 KFWD 181815
RWRTX
NORTH TEXAS HOURLY WEATHER ROUNDUP
NATIONAL WEATHER SERVICE FORT WORTH TX
100 PM CDT WED JUL 18 2018

NOTE: "FAIR" INDICATES FEW OR NO CLOUDS BELOW 12,000 FEET WITH NO
SIGNIFICANT WEATHER AND/OR OBSTRUCTIONS TO VISIBILITY.

TXZ118-119-181900-
DALLAS/FORT WORTH METROPLEX

CITY           SKY/WX    TMP DP  RH WIND       PRES   REMARKS
DFW AIRPORT    FAIR      98  66  34 VRB7      29.93F HX 101
6HR MIN TEMP:  82; 6HR MAX TEMP:  98;

DALLAS LOVE    FAIR     100  67  33 CALM      29.93F HX 105
6HR MIN TEMP:  83; 6HR MAX TEMP: 100;

FTW MEACHAM    FAIR      99  64  31 VRB7      29.93F HX 101
6HR MIN TEMP:  76; 6HR MAX TEMP: 100;

DAL-EXECUTIVE  FAIR     100  66  32 VRB5      29.94F HX 104
6HR MIN TEMP:  83; 6HR MAX TEMP: 101;

FTW-ALLIANCE   FAIR     101  62  27 S7        29.93F HX 102
6HR MIN TEMP:  82; 6HR MAX TEMP: 102;

FTW-NAS-JRB    FAIR     103  60  24 VRB3      29.94F HX 104
6HR MIN TEMP:  80; 6HR MAX TEMP: 104;

FTW-SPINKS     SUNNY    102  63  27 SW7       29.96F HX 104
ARLINGTON      FAIR      99  68  36 CALM      29.94F HX 104
6HR MIN TEMP:  81; 6HR MAX TEMP: 101;

GRAND PRAIRIE  SUNNY     99  63  30 W9        29.95F HX 100
ADDISON        SUNNY     99  64  32 SW8       29.95F HX 101
MESQUITE       SUNNY     97  66  36 SW8       29.95F HX 100
LANCASTER      FAIR     100  67  34 SW5       29.95F HX 104
6HR MIN TEMP:  77; 6HR MAX TEMP: 100;

$$

TXZ091>094-102>105-117-120-121-131>134-181900-
NORTH CENTRAL TEXAS

CITY           SKY/WX    TMP DP  RH WIND       PRES   REMARKS
SHRMAN/DENISON FAIR      98  63  31 W7        29.95F HX  99
6HR MIN TEMP:  82; 6HR MAX TEMP:  98;

GAINESVILLE    FAIR      99  61  28 NW7       29.96F HX 100
6HR MIN TEMP:  74; 6HR MAX TEMP:  99;

BOWIE          FAIR      98  61  28 W9        29.96F HX  99
6HR MIN TEMP:  75; 6HR MAX TEMP:  98;

BRIDGEPORT     FAIR     101  58  24 CALM      29.96F HX 100
6HR MIN TEMP:  78; 6HR MAX TEMP: 102;

DECATUR        FAIR      99  61  28 SW6       29.96F HX 100
6HR MIN TEMP:  81; 6HR MAX TEMP: 100;

DENTON         FAIR     101  63  28 SW9       29.93F HX 103
6HR MIN TEMP:  78; 6HR MAX TEMP: 101;

MCKINNEY       FAIR      98  66  34 SW6       29.94F HX 101
6HR MIN TEMP:  78; 6HR MAX TEMP:  98;

BONHAM         FAIR      97  65  33 SW7G17    29.95F HX 100
6HR MIN TEMP:  77; 6HR MAX TEMP:  98;

GREENVILLE     FAIR      99  66  34 S5        29.96F HX 102
ROCKWALL       FAIR      94  70  45 W7        29.96F HX 100
6HR MIN TEMP:  79; 6HR MAX TEMP:  95;

TERRELL        FAIR      96  70  42 S8        29.96F HX 102
6HR MIN TEMP:  77; 6HR MAX TEMP:  97;

WAXAHACHIE     FAIR     100  67  34 W5        29.96F HX 105
6HR MIN TEMP:  79; 6HR MAX TEMP: 100;

CLEBURNE       FAIR      99  66  34 VRB7G14   29.97F HX 102
GRANBURY       FAIR     104  59  23 SW9       29.95F HX 104
6HR MIN TEMP:  80; 6HR MAX TEMP: 104;

$$

TXZ083>090-098>101-113>116-127>130-139>142-154-155-181900-
WESTERN NORTH TEXAS

CITY           SKY/WX    TMP DP  RH WIND       PRES   REMARKS
WICHITA FALLS  FAIR      98  56  24 SW13      29.92F HX  96
6HR MIN TEMP:  77; 6HR MAX TEMP: 101;

WF-KICKAPOO    FAIR      98  56  25 SW8G17    29.96F HX  96
6HR MIN TEMP:  79; 6HR MAX TEMP:  99;

VERNON         FAIR     102  55  20 NW6       29.94S HX 100
6HR MIN TEMP:  77; 6HR MAX TEMP: 107;

ABILENE        FAIR     100  58  24 SW14      30.00F HX  99
6HR MIN TEMP:  79; 6HR MAX TEMP: 100;

ABILENE-DYESS  SUNNY    100  57  23 S12G20    30.01F HX  99
6HR MIN TEMP:  78; 6HR MAX TEMP:  98;

GRAHAM         FAIR     101  62  27 SW3       29.94F HX 102
6HR MIN TEMP:  76; 6HR MAX TEMP: 101;

BRECKENRIDGE   FAIR     101  57  23 CALM      29.97F HX 100
6HR MIN TEMP:  76; 6HR MAX TEMP: 101;

CISCO          FAIR      99  59  26 SW9G17    30.01F HX  98
EASTLAND       FAIR      99  59  26 S6        29.98F HX  99
6HR MIN TEMP:  74; 6HR MAX TEMP: 100;

RANGER         FAIR      95  63  33 SW9       30.00F HX  96
6HR MIN TEMP:  73; 6HR MAX TEMP:  96;

MINERAL WELLS  FAIR     100  62  28 SW6       29.94F HX 101
6HR MIN TEMP:  72; 6HR MAX TEMP: 101;

STEPHENVILLE   FAIR      99  61  28 W7        30.01F HX  99
6HR MIN TEMP:  72; 6HR MAX TEMP:  99;

COMANCHE       FAIR     100  62  28 SW6       29.99F HX 101
6HR MIN TEMP:  79; 6HR MAX TEMP: 100;

BROWNWOOD      LGT RAIN 100  61  27 SE6       29.99F HX 101
COLEMAN        FAIR     100  54  21 S13G18    30.01S HX  98
6HR MIN TEMP:  72; 6HR MAX TEMP: 100;

BRADY          FAIR      95  61  31 W10       30.03F HX  95
$$

TXZ143>147-156>162-174-175-181900-
CENTRAL TEXAS

CITY           SKY/WX    TMP DP  RH WIND       PRES   REMARKS
WACO           FAIR     103  67  31 SE10      29.96F HX 108
6HR MIN TEMP:  77; 6HR MAX TEMP: 106;

WACO-TSTC      SUNNY    100  64  30 S9        29.96F HX 103
WACO-MCGREGOR  FAIR     100  67  33 S13       29.97F HX 105
6HR MIN TEMP:  75; 6HR MAX TEMP: 101;

HILLSBORO      FAIR      98  68  37 W5        29.96F HX 102
6HR MIN TEMP:  78; 6HR MAX TEMP:  98;

CORSICANA      FAIR      96  70  42 S9        29.97F HX 102
6HR MIN TEMP:  77; 6HR MAX TEMP:  96;

MEXIA          FAIR      98  68  37 S10       29.97F HX 102
6HR MIN TEMP:  76; 6HR MAX TEMP:  98;

HEARNE         FAIR      95  69  43 S9G16     30.00S HX 100
6HR MIN TEMP:  74; 6HR MAX TEMP:  95;

CAMERON        FAIR      97  68  38 SW7G17    29.98F HX 102
6HR MIN TEMP:  75; 6HR MAX TEMP:  97;

TEMPLE         FAIR     100  66  32 SW10      29.98F HX 104
6HR MIN TEMP:  74; 6HR MAX TEMP: 100;

KILLEEN        FAIR      98  63  31 SE6       29.98F HX  99
6HR MIN TEMP:  76; 6HR MAX TEMP:  98;

KILLEEN-SKYLRK FAIR      99  67  35 SW7       29.99F HX 103
6HR MIN TEMP:  76; 6HR MAX TEMP: 100;

FORT HOOD      FAIR      99  66  34 S9        29.95F HX 102
6HR MIN TEMP:  77; 6HR MAX TEMP:  99;

GATESVILLE     FAIR      99  63  30 VRB5G12   29.99F HX 100
HAMILTON       FAIR     101  62  27 W8        30.01F HX 102
6HR MIN TEMP:  75; 6HR MAX TEMP: 101;

LAMPASAS       FAIR      96  64  35 CALM      29.99F HX  97
6HR MIN TEMP:  73; 6HR MAX TEMP:  97;

$$

TXZ095>097-106>112-122>126-135>138-148>153-164>167-181900-
EAST TEXAS

CITY           SKY/WX    TMP DP  RH WIND       PRES   REMARKS
PARIS          FAIR      94  72  48 SW10      29.96F HX 102
6HR MIN TEMP:  77; 6HR MAX TEMP:  94;

SULPHUR SPRNGS FAIR      95  70  44 S3        29.98F HX 101
6HR MIN TEMP:  80; 6HR MAX TEMP:  95;

MOUNT PLEASANT FAIR      87  74  64 S5        29.98F HX  95
6HR MIN TEMP:  73; 6HR MAX TEMP:  87; 6HR PCP:  0.19;

GILMER         FAIR     N/A N/A N/A S3        29.98S
MINEOLA        PTSUNNY   91  75  59 SE6       29.97F HX 102
TYLER          FAIR      92  70  48 VRB5      29.98F HX  97
6HR MIN TEMP:  81; 6HR MAX TEMP:  93;

LONGVIEW       FAIR      91  74  57 S8        29.98F HX 100
6HR MIN TEMP:  79; 6HR MAX TEMP:  92;

MARSHALL       PTSUNNY   85  69  58 S6        30.01F
6HR MIN TEMP:  75; 6HR MAX TEMP:  85;

ATHENS         FAIR      91  72  52 S6        29.97S HX  98
PALESTINE      FAIR      94  72  48 S8        29.99F HX 102
JACKSONVILLE   FAIR      92  72  51 S6        30.02F HX  99
CENTER         MOCLDY    92  65  40 NW5       30.00F HX  94
6HR MIN TEMP:  78; 6HR MAX TEMP:  93;

NACOGDOCHES      N/A     91  73  55 VRB5      30.00F HX  99
6HR MIN TEMP:  77; 6HR MAX TEMP:  91;

LUFKIN         FAIR      90  74  59 SW7       30.00F HX  99
6HR MIN TEMP:  75; 6HR MAX TEMP:  90;

$$

SUPPLEMENTAL OBSERVATIONS (NWS FORT WORTH AREA)

CITY           SKY/WX    TMP DP  RH WIND       PRES   REMARKS
DENISON DAM      N/A     93  61  33 NW5         N/A  HX  93


USA.gov is the U.S. government's official web portal to all federal, state and local government web resources and services.